User: anonymous   Login
Location: Dampvalley
(47.9094°N, 6.1967°E)
Time: 11:08:41
(UTC+00:00)
Language:

POLYITAN 1 - Orbit

View from above orbital plane
View from above orbital plane
View from above satellite
View from above satellite

Ground track
Ground track

The orbit data is extracted from the following two-line orbital elements,

1 40042U 14033AJ  21335.08710321  .00001027  00000-0  11364-3 0  9995
2 40042  97.9541 267.2567 0014351 347.8710  12.2160 14.89522337404628
Epoch (UTC): 01 December 2021 02:05:25
Eccentricity: 0.0014351
inclination: 97.9541°
perigee height: 589 km
apogee height: 609 km
right ascension of ascending node: 267.2567°
argument of perigee: 347.8710°
revolutions per day: 14.89522337
mean anomaly at epoch: 12.2160°
orbit number at epoch: 40462

The dashed part of the orbit path shows where the satellite is in the earth's shadow,  

DLR